Location: Tierra del Sol
(32.6128°N, 116.3319°W)
Time: 03:17:52
(UTC-08:00)

Vanguard 1 - All Passes

Search period start: 16 December 2017 00:00
Search period end: 26 December 2017 00:00
Orbit: 650 x 3834 km, 34.2° (Epoch: 15 December)

Date Brightness Start Highest point End Pass type
(mag) Time Alt. Az. Time Alt. Az. Time Alt. Az.
16 Dec - 03:30:38 10° SSE 03:41:30 16° SE 03:52:42 10° E visible
16 Dec - 05:44:48 10° SSW 06:06:04 47° SE 06:24:41 10° ENE visible
16 Dec - 08:08:33 10° WSW 08:32:18 80° SSE 08:48:06 10° ENE daylight
16 Dec - 10:37:26 10° W 10:58:10 84° N 11:09:24 10° E daylight
16 Dec - 13:06:41 10° WNW 13:21:33 72° SSW 13:29:15 10° ESE daylight
16 Dec - 15:34:56 10° W 15:41:10 20° SW 15:45:40 10° S daylight
17 Dec - 03:47:39 10° S 04:02:28 23° SE 04:17:52 10° E visible
17 Dec - 06:05:08 10° SW 06:27:23 56° SSE 06:46:23 10° ENE visible
17 Dec - 08:30:13 10° WSW 08:53:58 87° SSE 09:09:19 10° ENE daylight
17 Dec - 10:59:36 10° W 11:19:45 85° N 11:30:30 10° E daylight
17 Dec - 13:28:34 10° WNW 13:42:29 59° SSW 13:49:55 10° SE daylight
17 Dec - 15:58:48 10° WSW 16:01:28 12° SW 16:03:47 10° SSW daylight
18 Dec - 04:06:14 10° S 04:23:25 31° SE 04:41:18 10° E visible
18 Dec - 06:25:51 10° SW 06:48:49 65° SSE 07:07:54 10° ENE daylight
18 Dec - 08:52:06 10° WSW 09:15:42 88° N 09:30:32 10° E daylight
18 Dec - 11:21:43 10° W 11:41:16 90° N 11:51:33 10° ESE daylight
18 Dec - 13:50:31 10° WNW 14:03:15 46° SW 14:10:21 10° SE daylight
19 Dec - 04:25:36 10° SSW 04:44:24 39° SE 05:03:54 10° E visible
19 Dec - 06:46:53 10° SW 07:10:21 74° SSE 07:29:18 10° ENE daylight
19 Dec - 09:14:07 10° W 09:37:28 85° N 09:51:46 10° E daylight
19 Dec - 11:43:47 10° WNW 12:02:39 83° SSW 12:12:32 10° ESE daylight
19 Dec - 14:12:39 10° WNW 14:23:47 34° SW 14:30:28 10° SSE daylight
20 Dec - 02:32:06 10° SSE 02:41:49 15° SE 02:52:31 10° E visible
20 Dec - 04:45:30 10° SSW 05:05:28 48° SE 05:26:01 10° ENE visible
20 Dec - 07:08:12 10° WSW 07:32:02 82° SSE 07:50:40 10° ENE daylight
20 Dec - 09:36:14 10° W 09:59:15 85° N 10:12:58 10° E daylight
20 Dec - 12:05:47 10° WNW 12:23:52 73° SSW 12:33:23 10° ESE daylight
20 Dec - 14:35:09 10° W 14:44:09 24° SW 14:50:07 10° S daylight
21 Dec - 02:49:08 10° S 03:02:32 23° SE 03:17:55 10° E visible
21 Dec - 05:05:49 10° SW 05:26:40 57° SE 05:47:50 10° ENE visible
21 Dec - 07:29:46 10° WSW 07:53:49 88° SSE 08:12:00 10° ENE daylight
21 Dec - 09:58:21 10° W 10:21:00 86° N 10:34:10 10° E daylight
21 Dec - 12:27:45 10° WNW 12:44:54 61° SSW 12:54:03 10° SE daylight
21 Dec - 14:58:33 10° W 15:04:24 15° SW 15:08:53 10° SSW daylight
22 Dec - 03:07:44 10° S 03:23:14 30° SE 03:41:31 10° E visible
22 Dec - 05:26:29 10° SW 05:48:02 67° SSE 06:09:28 10° ENE visible
22 Dec - 07:51:32 10° WSW 08:15:41 88° N 08:33:21 10° E daylight
22 Dec - 10:20:27 10° W 10:42:39 89° SSW 10:55:17 10° ESE daylight
22 Dec - 12:49:48 10° WNW 13:05:42 49° SW 13:14:30 10° SE daylight
23 Dec - 03:27:08 10° SSW 03:44:00 39° SE 04:04:15 10° ENE visible
23 Dec - 05:47:26 10° SW 06:09:34 75° SSE 06:31:01 10° ENE visible
23 Dec - 08:13:26 10° W 08:37:37 85° N 08:54:42 10° E daylight
23 Dec - 10:42:30 10° WNW 11:04:10 83° SSW 11:16:19 10° ESE daylight
23 Dec - 13:12:01 10° WNW 13:26:17 38° SW 13:34:38 10° SSE daylight
24 Dec - 01:34:39 10° SSE 01:42:24 14° SE 01:51:18 10° E visible
24 Dec - 03:47:01 10° SSW 04:04:54 48° SE 04:26:29 10° ENE visible
24 Dec - 06:08:40 10° WSW 06:31:16 82° SSE 06:52:31 10° ENE visible
24 Dec - 08:35:25 10° W 08:59:33 85° N 09:16:02 10° E daylight
24 Dec - 11:04:31 10° WNW 11:25:30 74° SSW 11:37:11 10° ESE daylight
24 Dec - 13:34:35 10° W 13:46:40 28° SW 13:54:22 10° S daylight
25 Dec - 01:51:28 10° S 02:02:54 21° SE 02:17:07 10° E visible
25 Dec - 04:07:19 10° SW 04:25:58 58° SE 04:48:26 10° ENE visible
25 Dec - 06:30:06 10° WSW 06:53:07 88° SSE 07:14:01 10° E daylight
25 Dec - 08:57:26 10° W 09:21:27 87° N 09:37:20 10° E daylight
25 Dec - 11:26:32 10° WNW 11:46:36 63° SSW 11:57:53 10° SE daylight
25 Dec - 13:57:50 10° W 14:06:55 19° SW 14:13:24 10° SSW daylight
